Flag for Turkey Weather past 2 weeks in Istanbul, Turkey

Now
46 °F

Clear.


Feels Like: 45 °F
Forecast: 42 / 50 °F
Wind: 3 mph from South

Location: Istanbul Ataturk Airport

Current Time: Apr 22, 2015 at 2:41:08 AM

Latest Report: Apr 22, 2015 at 1:50 AM


Visibility: 10 mi

Pressure: 30.07 "Hg

Humidity: 71%

Dew point: 37 °F

Location of IstanbulLocation

Historic Weather in Istanbul — Graph

°F

Istanbul temperature yesterday

Maximum temperature yesterday: 52 °F (at 3:20 AM)
Minimum temperature yesterday: 46 °F (at 11:20 AM)
Average temperature yesterday: 50 °F

Past Weeks' High & Low Weather Summary

 TemperatureHumidityPressure
High70 °F (Apr 17, 4:20 PM)100% (Apr 16, 8:01 AM)30.33 "Hg (Apr 16, 8:01 AM)
Low39 °F (Apr 11, 4:20 AM)26% (Apr 10, 12:50 PM)29.71 "Hg (Apr 7, 3:20 AM)
Average52 °F66%30.08 "Hg
* Reported Apr 7 1:20 AM — Apr 22 1:20 AM, Istanbul, Weather by CustomWeather, © 2015

Note: Actual official high and low records may vary slightly from our data, if they occured in-between our weather recording intervals... More about our weather records

Advertising

Istanbul weather history for previous 24 hours

 ConditionsComfort  
Time TempWeatherWind HumidityBarometerVisibility
1:20 AM
Wed, Apr 22
46 °FPassing clouds.3 mph71%30.07 "HgN/A
12:50 AM46 °FPassing clouds.3 mph71%30.07 "HgN/A
12:20 AM46 °FClear.3 mph71%30.07 "Hg10 mi
11:50 PM
Tue, Apr 21
46 °FClear.3 mph71%30.07 "Hg10 mi
11:20 PM48 °FPassing clouds.3 mph66%30.09 "HgN/A
10:50 PM48 °FPassing clouds.5 mph66%30.09 "HgN/A
10:20 PM48 °FPassing clouds.5 mph62%30.09 "HgN/A
9:50 PM48 °FPassing clouds.7 mph66%30.09 "HgN/A
9:20 PM48 °FPassing clouds.7 mph62%30.09 "HgN/A
8:50 PM50 °FClear.7 mph54%30.09 "Hg10 mi
8:20 PM50 °FPassing clouds.8 mph54%30.07 "HgN/A
7:50 PM50 °FPassing clouds.8 mph50%30.07 "HgN/A
7:20 PM52 °FScattered clouds.12 mph47%30.07 "HgN/A
6:50 PM52 °FScattered clouds.10 mph47%30.04 "HgN/A
6:20 PM52 °FPassing clouds.13 mph50%30.04 "HgN/A
5:50 PM52 °FScattered clouds.12 mph47%30.04 "HgN/A
5:20 PM52 °FScattered clouds.13 mph50%30.04 "HgN/A
4:50 PM52 °FScattered clouds.16 mph54%30.04 "HgN/A
4:20 PM52 °FScattered clouds.15 mph54%30.04 "HgN/A
3:50 PM52 °FPartly sunny.16 mph58%30.04 "HgN/A
3:20 PM50 °FPartly sunny.17 mph62%30.04 "HgN/A
2:50 PM50 °FBroken clouds.17 mph62%30.04 "HgN/A
2:20 PM50 °FBroken clouds.18 mph62%30.01 "HgN/A
1:50 PM50 °FBroken clouds.18 mph62%30.01 "HgN/A
1:20 PM50 °FBroken clouds.20 mph67%30.01 "HgN/A
12:50 PM50 °FScattered clouds.17 mph67%29.98 "HgN/A
12:20 PM50 °FBroken clouds.20 mph76%29.98 "HgN/A
11:50 AM48 °FPartly sunny.20 mph76%29.98 "HgN/A
11:20 AM46 °FSprinkles. Broken clouds.18 mph82%29.98 "HgN/A
10:50 AM48 °FSprinkles. Broken clouds.18 mph82%29.95 "HgN/A
10:20 AM50 °FSprinkles. Broken clouds.16 mph76%29.95 "Hg5 mi
9:50 AM50 °FSprinkles. Partly sunny.20 mph76%29.92 "HgN/A
9:20 AM50 °FSprinkles. Partly sunny.18 mph76%29.92 "HgN/A
8:50 AM50 °FSprinkles. Partly sunny.18 mph76%29.89 "HgN/A
8:20 AM50 °FSprinkles. Broken clouds.13 mph76%29.89 "HgN/A
7:55 AM52 °FSprinkles. Broken clouds.7 mph67%29.89 "HgN/A
7:20 AM50 °FBroken clouds.8 mph71%29.86 "HgN/A
6:50 AM50 °FPartly cloudy.7 mph76%29.86 "HgN/A
6:20 AM50 °FPartly cloudy.5 mph71%29.86 "HgN/A
5:50 AM52 °FPartly cloudy.7 mph62%29.86 "HgN/A
5:20 AM52 °FPartly cloudy.5 mph62%29.86 "HgN/A
4:50 AM52 °FSprinkles. Partly cloudy.5 mph77%29.86 "HgN/A
4:20 AM52 °FPartly cloudy.6 mph82%29.86 "HgN/A
3:50 AM52 °FClear.7 mph77%29.86 "Hg10 mi
3:20 AM52 °FClear.8 mph77%29.86 "Hg10 mi
2:50 AM50 °FClear.8 mph82%29.86 "Hg10 mi
2:20 AM50 °FClear.7 mph76%29.86 "Hg10 mi
Weather by CustomWeather, © 2015

See weather overviewHow to use our weather pages